| time (UTC) | temp F | wind direction | speed MPH | gust MPH | rain 1hr in | rain 24hr in | rain mn in | humidity % | barometer mb |
| 20260905233032 | 60 | 210 | 0.0 | 0.0 | 0.00 | 0.00 | 0.00 | 91 | 1023.7 |
| 20260905231529 | 60 | 210 | 0.0 | 2.0 | 0.00 | 0.00 | 0.00 | 90 | 1023.8 |
| 20260905230026 | 60 | 210 | 0.0 | 3.0 | 0.00 | 0.00 | 0.00 | 90 | 1023.8 |
| 20260905224525 | 60 | 210 | 0.0 | 0.0 | 0.00 | 0.00 | 0.00 | 90 | 1023.8 |
| 20260905223034 | 61 | 210 | 0.0 | 3.0 | 0.00 | 0.00 | 0.00 | 90 | 1023.9 |
| 20260905221536 | 61 | 210 | 0.0 | 0.0 | 0.00 | 0.00 | 0.00 | 89 | 1023.9 |
| 20260905220020 | 61 | 210 | 0.0 | 0.0 | 0.00 | 0.00 | 0.00 | 88 | 1023.8 |
| 20260905214519 | 62 | 210 | 0.0 | 0.0 | 0.00 | 0.00 | 0.00 | 88 | 1023.8 |
| 20260905213020 | 61 | 210 | 0.0 | 0.0 | 0.00 | 0.00 | 0.00 | 89 | 1023.7 |
| 20260905211535 | 61 | 211 | 0.0 | 0.0 | 0.00 | 0.00 | 0.00 | 89 | 1023.7 |
| 20260905210017 | 61 | 211 | 0.0 | 0.0 | 0.00 | 0.00 | 0.00 | 88 | 1023.7 |
| 20260905204516 | 61 | 211 | 0.0 | 3.0 | 0.00 | 0.00 | 0.00 | 87 | 1023.7 |
| 20260905203013 | 62 | 211 | 0.0 | 0.0 | 0.00 | 0.00 | 0.00 | 88 | 1023.7 |
| 20260905201511 | 62 | 211 | 0.0 | 3.0 | 0.00 | 0.00 | 0.00 | 87 | 1023.5 |
| 20260905200009 | 63 | 211 | 0.0 | 0.0 | 0.00 | 0.00 | 0.00 | 88 | 1023.4 |
| 20260905194509 | 62 | 211 | 0.0 | 0.0 | 0.00 | 0.00 | 0.00 | 88 | 1023.3 |
| 20260905193006 | 63 | 211 | 0.0 | 0.0 | 0.00 | 0.00 | 0.00 | 87 | 1023.1 |
| 20260905191504 | 63 | 211 | 0.0 | 0.0 | 0.00 | 0.00 | 0.00 | 87 | 1023.0 |
| 20260905190002 | 63 | 211 | 0.0 | 2.0 | 0.00 | 0.00 | 0.00 | 87 | 1023.0 |
| 20260905184610 | 64 | 211 | 0.0 | 4.0 | 0.00 | 0.00 | 0.00 | 86 | 1022.9 |
| 20260905183056 | 64 | 213 | 0.0 | 2.0 | 0.00 | 0.00 | 0.00 | 84 | 1022.7 |
| 20260905181553 | 66 | 213 | 0.0 | 4.0 | 0.00 | 0.00 | 0.00 | 81 | 1022.4 |
| 20260905180059 | 68 | 322 | 0.0 | 0.0 | 0.00 | 0.00 | 0.00 | 79 | 1022.3 |
| 20260905174600 | 69 | 322 | 0.0 | 1.0 | 0.00 | 0.00 | 0.00 | 77 | 1022.3 |
| 20260905173050 | 70 | 360 | 0.0 | 3.0 | 0.00 | 0.00 | 0.00 | 75 | 1022.1 |
| 20260905171600 | 72 | 345 | 0.0 | 2.0 | 0.00 | 0.00 | 0.00 | 72 | 1022.1 |
| 20260905170055 | 72 | 341 | 0.0 | 5.0 | 0.00 | 0.00 | 0.00 | 72 | 1021.8 |
| 20260905164548 | 72 | 295 | 3.0 | 8.0 | 0.00 | 0.00 | 0.00 | 72 | 1021.8 |
| 20260905163044 | 73 | 306 | 4.0 | 9.0 | 0.00 | 0.00 | 0.00 | 71 | 1021.7 |
| 20260905161543 | 73 | 32 | 3.0 | 9.0 | 0.00 | 0.00 | 0.00 | 71 | 1021.7 |
| 20260905160048 | 72 | 297 | 5.0 | 13.0 | 0.00 | 0.00 | 0.00 | 73 | 1021.6 |
| 20260905154552 | 71 | 302 | 2.0 | 7.0 | 0.00 | 0.00 | 0.00 | 75 | 1021.6 |
| 20260905153040 | 71 | 5 | 1.0 | 6.0 | 0.00 | 0.00 | 0.00 | 76 | 1021.5 |
| 20260905151540 | 71 | 321 | 2.0 | 9.0 | 0.00 | 0.00 | 0.00 | 76 | 1021.6 |
| 20260905150039 | 71 | 347 | 1.0 | 8.0 | 0.00 | 0.00 | 0.00 | 76 | 1021.5 |
| 20260905144549 | 71 | 282 | 4.0 | 9.0 | 0.00 | 0.00 | 0.00 | 76 | 1021.6 |
| 20260905143038 | 72 | 331 | 2.0 | 8.0 | 0.00 | 0.00 | 0.00 | 75 | 1021.6 |
| 20260905141537 | 74 | 308 | 2.0 | 10.0 | 0.00 | 0.00 | 0.00 | 73 | 1021.5 |
| 20260905140039 | 73 | 307 | 7.0 | 14.0 | 0.00 | 0.00 | 0.00 | 74 | 1021.7 |
| 20260905134543 | 71 | 287 | 3.0 | 9.0 | 0.00 | 0.00 | 0.00 | 76 | 1021.6 |
| 20260905133033 | 71 | 330 | 4.0 | 11.0 | 0.00 | 0.00 | 0.00 | 76 | 1021.5 |
| 20260905131531 | 70 | 314 | 3.0 | 10.0 | 0.00 | 0.00 | 0.00 | 77 | 1021.4 |
| 20260905130030 | 70 | 347 | 4.0 | 11.0 | 0.00 | 0.00 | 0.00 | 75 | 1021.2 |
| 20260905124539 | 72 | 313 | 4.0 | 11.0 | 0.00 | 0.00 | 0.00 | 73 | 1021.1 |
| 20260905123028 | 74 | 305 | 3.0 | 8.0 | 0.00 | 0.00 | 0.00 | 70 | 1020.9 |
| 20260905121527 | 74 | 287 | 4.0 | 7.0 | 0.00 | 0.00 | 0.00 | 70 | 1020.8 |
| 20260905120030 | 74 | 315 | 1.0 | 7.0 | 0.00 | 0.00 | 0.00 | 69 | 1021.0 |
| 20260905114525 | 74 | 275 | 3.0 | 8.0 | 0.00 | 0.00 | 0.00 | 69 | 1021.0 |
| 20260905113026 | 75 | 324 | 0.0 | 7.0 | 0.00 | 0.00 | 0.00 | 70 | 1021.0 |
| 20260905111523 | 74 | 288 | 2.0 | 8.0 | 0.00 | 0.00 | 0.00 | 70 | 1020.9 |
| 20260905110023 | 74 | 289 | 4.0 | 9.0 | 0.00 | 0.00 | 0.00 | 71 | 1021.0 |
| 20260905104526 | 73 | 237 | 1.0 | 6.0 | 0.00 | 0.00 | 0.00 | 73 | 1020.9 |
| 20260905103020 | 71 | 303 | 3.0 | 7.0 | 0.00 | 0.00 | 0.00 | 74 | 1021.0 |
| 20260905101520 | 71 | 254 | 5.0 | 9.0 | 0.00 | 0.00 | 0.00 | 73 | 1020.9 |
| 20260905100019 | 71 | 307 | 2.0 | 9.0 | 0.00 | 0.00 | 0.00 | 76 | 1021.0 |
| 20260905094517 | 71 | 284 | 5.0 | 8.0 | 0.00 | 0.00 | 0.00 | 76 | 1021.0 |
| 20260905093016 | 71 | 297 | 6.0 | 9.0 | 0.00 | 0.00 | 0.00 | 76 | 1020.8 |
| 20260905091514 | 70 | 258 | 6.0 | 10.0 | 0.00 | 0.00 | 0.00 | 77 | 1020.6 |
| 20260905090019 | 70 | 297 | 5.0 | 11.0 | 0.00 | 0.00 | 0.00 | 76 | 1020.6 |
| 20260905084517 | 69 | 316 | 5.0 | 13.0 | 0.00 | 0.00 | 0.00 | 78 | 1020.5 |
| 20260905083014 | 69 | 262 | 8.0 | 10.0 | 0.00 | 0.00 | 0.00 | 78 | 1020.3 |
| 20260905081508 | 68 | 252 | 6.0 | 9.0 | 0.00 | 0.00 | 0.00 | 78 | 1020.0 |
| 20260905080008 | 68 | 222 | 2.0 | 7.0 | 0.00 | 0.00 | 0.00 | 81 | 1020.1 |
| 20260905074502 | 67 | 249 | 3.0 | 7.0 | 0.00 | 0.00 | 0.00 | 82 | 1020.0 |
| 20260905073102 | 67 | 256 | 3.0 | 7.0 | 0.00 | 0.00 | 0.00 | 82 | 1019.7 |
| 20260905071603 | 67 | 270 | 3.0 | 7.0 | 0.00 | 0.00 | 0.00 | 82 | 1019.6 |
| 20260905070057 | 67 | 261 | 4.0 | 6.0 | 0.00 | 0.00 | 0.00 | 81 | 1019.5 |
| 20260905064558 | 67 | 255 | 2.0 | 7.0 | 0.00 | 0.00 | 0.00 | 80 | 1019.3 |
| 20260905063051 | 67 | 257 | 2.0 | 6.0 | 0.00 | 0.00 | 0.00 | 78 | 1019.1 |
| 20260905061606 | 67 | 262 | 3.0 | 6.0 | 0.00 | 0.00 | 0.00 | 77 | 1018.9 |
| 20260905060047 | 67 | 262 | 3.0 | 8.0 | 0.00 | 0.00 | 0.00 | 76 | 1019.0 |
| 20260905054549 | 67 | 238 | 4.0 | 9.0 | 0.00 | 0.00 | 0.00 | 76 | 1018.6 |
| 20260905053042 | 67 | 228 | 5.0 | 10.0 | 0.00 | 0.00 | 0.00 | 76 | 1018.5 |
| 20260905051544 | 67 | 205 | 5.0 | 7.0 | 0.00 | 0.00 | 0.00 | 76 | 1018.3 |
| 20260905050038 | 67 | 208 | 3.0 | 5.0 | 0.00 | 0.00 | 0.00 | 75 | 1018.3 |
| 20260905044539 | 68 | 249 | 5.0 | 9.0 | 0.00 | 0.00 | 0.00 | 74 | 1018.3 |
| 20260905043104 | 68 | 268 | 7.0 | 13.0 | 0.00 | 0.00 | 0.00 | 73 | 1018.3 |
| 20260905041536 | 68 | 265 | 3.0 | 9.0 | 0.00 | 0.00 | 0.00 | 73 | 1018.2 |
| 20260905040046 | 67 | 259 | 6.0 | 10.0 | 0.00 | 0.00 | 0.00 | 73 | 1017.9 |
| 20260905034534 | 66 | 246 | 5.0 | 7.0 | 0.00 | 0.00 | 0.00 | 74 | 1017.8 |
| 20260905033030 | 66 | 283 | 2.0 | 9.0 | 0.00 | 0.00 | 0.00 | 71 | 1017.6 |
| 20260905031527 | 67 | 261 | 6.0 | 8.0 | 0.00 | 0.00 | 0.00 | 70 | 1017.5 |
| 20260905030023 | 69 | 279 | 5.0 | 9.0 | 0.00 | 0.00 | 0.00 | 67 | 1017.4 |
| 20260905024522 | 69 | 243 | 8.0 | 14.0 | 0.00 | 0.00 | 0.00 | 66 | 1017.3 |
| 20260905023019 | 69 | 269 | 5.0 | 9.0 | 0.00 | 0.00 | 0.00 | 66 | 1017.4 |
| 20260905021517 | 69 | 228 | 8.0 | 12.0 | 0.00 | 0.00 | 0.00 | 64 | 1017.1 |
| 20260905020014 | 70 | 211 | 9.0 | 13.0 | 0.00 | 0.00 | 0.00 | 63 | 1016.8 |
| 20260905014512 | 72 | 249 | 6.0 | 12.0 | 0.00 | 0.00 | 0.00 | 61 | 1017.0 |
| 20260905013010 | 72 | 270 | 10.0 | 14.0 | 0.00 | 0.00 | 0.00 | 60 | 1016.9 |
| 20260905011510 | 72 | 249 | 7.0 | 13.0 | 0.00 | 0.00 | 0.00 | 60 | 1016.7 |
| 20260905010015 | 72 | 237 | 6.0 | 12.0 | 0.00 | 0.00 | 0.00 | 61 | 1016.7 |
| 20260905004509 | 71 | 263 | 6.0 | 13.0 | 0.00 | 0.00 | 0.00 | 62 | 1016.6 |
| 20260905003006 | 71 | 251 | 5.0 | 10.0 | 0.00 | 0.00 | 0.00 | 64 | 1016.7 |
| 20260905001501 | 72 | 231 | 8.0 | 14.0 | 0.00 | 0.00 | 0.00 | 63 | 1016.6 |
| 20260905000058 | 72 | 254 | 8.0 | 11.0 | 0.00 | 0.00 | 0.00 | 61 | 1016.6 |
| 20260904234557 | 73 | 223 | 10.0 | 15.0 | 0.00 | 0.00 | 0.00 | 59 | 1016.6 |